Theta_e
335 336 330 328 331 327 326 326 323 325 327 324 323 324 337 347 328 322 340 349 337 337 345 350 351 352 353 357 360 358 359 363 359 361 379 385 383 385 377 367 365 364 361 361 358 351 348 348 349 348 347 346 345 345 344 342 342 342 342 344 346 345 345 346 346 344 342 341 339 338 337 337 337 336 334 334 334 333 332 333 333 334 333 332 331 330 330
327 329 329 330 328 325 326 327 326 328 327 326 325 328 339 346 340 344 351 348 346 344 341 345 349 349 352 355 355 351 354 366 368 364 371 374 374 379 378 370 367 364 362 360 356 351 348 348 349 349 347 345 345 344 342 341 341 341 341 343 346 347 345 345 346 344 342 341 339 338 337 337 337 336 334 334 333 334 334 334 334 334 333 332 331 330 331
323 327 329 329 327 326 323 323 330 330 328 330 328 327 331 334 337 351 355 347 348 346 341 348 351 353 356 353 352 354 356 361 362 360 363 367 369 371 371 370 369 366 364 362 357 352 349 348 350 350 348 346 345 342 338 337 339 340 341 344 345 344 340 339 342 343 340 339 338 337 337 336 336 336 335 334 334 335 335 335 335 334 333 332 331 331 331
318 324 327 326 325 325 320 319 327 328 325 327 328 331 335 329 330 343 345 339 345 349 349 352 355 357 358 356 358 364 366 364 358 354 355 360 366 369 368 370 373 370 366 364 361 354 349 350 352 350 348 346 341 337 335 336 337 337 338 339 338 336 334 335 338 338 337 336 336 335 336 336 336 335 334 335 335 335 335 335 335 334 333 332 331 330 331
318 323 325 324 322 319 316 319 326 328 330 331 330 331 336 335 340 345 339 337 347 355 353 351 353 356 357 359 362 363 368 372 368 362 361 361 367 374 373 372 374 370 365 362 359 353 350 352 353 350 346 343 339 336 335 336 337 336 335 335 333 332 333 335 337 336 334 335 335 335 336 336 335 335 335 335 336 336 336 336 335 334 333 332 331 330 330
317 325 328 324 319 317 322 332 334 334 333 332 332 333 336 343 350 349 344 345 352 352 350 352 354 353 353 355 358 362 368 371 366 362 363 364 365 372 374 371 368 367 363 358 355 354 353 353 352 348 344 341 338 336 334 333 333 334 334 335 335 334 336 338 338 336 336 336 335 335 336 335 335 335 335 336 336 336 336 336 335 335 333 332 331 330 331
322 332 335 323 316 322 337 345 340 336 335 336 339 341 344 347 348 350 348 349 354 354 351 353 356 355 355 357 362 367 370 373 371 367 367 368 365 367 371 372 368 364 360 355 353 355 354 353 351 347 344 342 338 335 333 331 330 332 335 338 339 339 340 340 339 338 338 338 337 337 337 336 336 336 336 336 336 336 337 336 336 335 333 332 331 331 331
326 326 328 324 324 334 348 347 339 336 342 346 343 341 348 348 346 351 350 346 355 358 351 352 356 356 359 363 365 364 363 365 364 360 361 363 360 362 368 372 370 363 356 354 355 356 354 353 350 346 343 341 337 334 333 332 332 333 335 339 343 343 342 342 340 339 339 339 338 338 338 337 337 337 336 336 336 337 337 337 336 335 333 332 331 330 330
326 320 322 327 327 331 339 342 340 338 339 345 341 337 345 351 349 356 358 349 352 356 352 350 350 351 357 358 355 355 356 356 354 352 351 350 352 358 360 362 364 359 354 355 357 357 355 352 350 346 342 339 336 334 333 333 333 334 335 339 345 346 343 342 341 340 340 339 339 338 338 338 337 337 337 337 337 337 337 337 336 335 334 332 331 331 330
330 321 320 326 320 320 331 340 345 342 334 341 345 338 344 356 353 352 355 351 350 354 354 353 352 358 361 353 346 348 349 349 350 349 346 346 353 360 359 360 364 361 358 359 359 358 356 353 350 346 341 338 336 334 334 333 333 335 337 341 345 346 345 344 343 342 341 340 339 338 338 338 337 338 338 337 337 338 338 338 337 336 334 333 331 331 330
331 324 322 323 318 323 343 350 346 340 334 343 349 336 337 355 357 349 351 353 352 350 353 359 362 361 356 347 343 344 344 346 350 348 347 354 359 358 358 362 365 364 363 361 360 359 356 351 349 346 341 338 336 334 334 334 334 337 340 343 345 345 345 344 344 343 342 341 340 339 338 338 338 338 338 338 338 338 338 338 337 336 335 333 331 331 329
330 329 326 324 324 338 357 349 339 339 339 352 352 332 333 353 358 350 348 351 353 351 353 360 359 357 356 352 348 343 337 339 348 353 359 367 365 360 359 361 362 362 363 363 361 360 355 350 348 346 341 338 337 336 336 336 337 340 343 344 344 344 344 344 344 345 344 342 340 339 338 338 338 338 338 338 338 339 339 338 337 336 335 333 331 330 329
326 326 323 322 330 350 357 341 337 338 338 346 340 333 343 356 353 348 345 344 350 354 354 355 354 355 359 355 347 343 339 342 352 358 359 360 359 357 357 359 361 360 361 361 360 358 354 350 348 345 341 339 338 339 340 339 340 342 342 343 344 343 344 345 345 345 345 343 342 340 339 338 338 338 338 339 338 338 338 337 336 335 334 333 331 330 330
331 332 331 326 332 349 347 336 340 340 337 340 340 343 351 350 344 346 345 342 346 349 349 350 350 348 348 345 341 341 344 349 357 359 357 356 356 357 357 358 359 360 360 359 358 356 354 350 347 345 342 341 341 343 343 342 342 342 341 341 341 342 343 344 345 345 344 343 342 341 339 338 337 337 338 337 337 336 335 334 334 334 334 333 332 331 330
346 344 341 333 335 348 344 340 355 358 349 353 361 358 351 343 341 345 345 343 346 345 344 347 347 345 346 348 348 346 347 353 358 358 358 356 355 358 358 357 358 360 359 355 353 353 353 349 347 346 344 344 345 346 346 344 344 345 346 345 343 343 343 345 345 345 344 342 341 340 339 338 337 337 337 337 336 335 333 333 333 333 334 334 333 331 330
353 345 345 344 346 350 343 344 362 363 355 360 366 358 350 346 344 345 346 347 347 346 347 349 348 347 349 351 352 350 351 356 359 357 357 356 354 356 357 356 356 355 350 346 344 346 350 349 348 347 347 348 349 349 349 349 348 348 348 346 346 346 346 347 347 346 343 341 341 340 339 338 336 335 336 336 335 334 333 332 331 329 331 333 333 331 331
352 348 353 356 352 347 342 345 352 351 348 351 350 345 344 345 345 345 347 347 348 348 351 353 353 352 351 352 353 351 354 361 361 358 358 357 354 353 350 347 346 345 342 341 340 339 344 349 348 347 347 349 351 351 351 350 347 343 340 339 342 344 346 347 347 346 344 341 340 339 337 336 335 334 335 335 334 333 333 332 331 328 328 329 331 331 331
352 345 347 348 343 339 339 340 341 340 340 342 342 343 345 345 346 347 347 347 350 351 351 352 356 356 353 352 353 354 360 367 364 359 357 352 347 346 345 342 341 340 339 340 340 339 341 346 350 350 349 351 352 350 348 344 340 337 336 337 340 342 344 344 344 345 344 342 341 339 337 337 335 333 333 334 333 332 333 332 331 329 328 327 328 330 331
349 348 349 345 339 337 337 337 338 338 337 338 342 347 348 346 346 346 344 345 350 352 352 355 358 357 354 356 360 361 362 360 357 356 355 349 344 344 344 342 340 339 339 340 340 341 341 343 347 348 348 349 348 345 343 341 339 340 341 341 342 343 343 344 345 346 345 343 342 341 339 339 338 334 333 333 333 332 332 331 330 329 327 327 328 330 331
352 354 353 346 343 341 336 336 339 338 337 338 340 342 343 341 342 343 343 343 346 348 353 359 361 358 357 360 361 359 355 352 351 352 351 346 343 342 341 340 340 339 339 340 340 340 339 341 342 343 344 343 340 340 339 335 332 335 339 341 342 343 343 344 345 345 343 342 341 340 339 338 336 334 333 332 332 331 331 330 330 329 328 329 330 330 331
357 355 350 348 350 346 336 335 338 338 336 337 337 337 337 336 338 341 341 342 343 344 350 358 362 361 357 356 352 348 347 348 348 348 346 343 342 342 342 340 339 338 339 339 339 337 336 336 335 333 335 334 332 333 331 326 325 329 334 337 339 339 341 342 342 342 341 341 340 338 336 334 333 331 331 331 331 331 332 331 331 330 329 330 330 329 329
357 357 353 352 352 345 336 336 339 338 336 336 336 336 335 333 336 338 336 337 342 345 348 355 361 362 358 353 349 347 347 347 346 345 343 341 340 342 342 341 340 339 339 339 337 335 334 331 327 325 328 330 329 327 326 325 327 329 332 334 335 335 337 337 337 338 339 339 337 336 334 333 331 329 328 327 328 330 331 332 330 327 327 327 327 326 326
349 347 345 347 349 343 336 337 339 339 338 336 333 333 333 333 334 334 333 335 340 344 347 351 357 361 359 354 352 351 350 346 343 343 342 340 340 340 340 340 340 339 338 339 338 336 332 326 324 326 330 330 327 326 327 329 329 328 330 333 334 334 334 334 335 336 336 335 335 335 334 333 332 329 327 326 325 325 326 327 326 324 323 323 324 324 323
334 333 334 339 343 340 335 336 338 338 338 336 332 330 332 332 331 331 335 339 341 343 345 346 349 355 357 353 354 357 353 345 341 342 342 340 339 338 338 338 338 339 340 340 339 337 333 328 326 328 329 328 327 329 332 333 331 330 331 331 332 333 332 332 334 335 335 335 335 335 334 334 333 330 329 326 322 320 321 322 322 321 321 322 321 321 321
327 331 332 333 336 336 336 336 334 334 335 334 333 334 334 333 334 336 337 340 340 337 338 340 341 346 351 351 351 353 350 344 341 343 343 341 339 338 339 338 337 340 342 340 337 337 335 329 326 325 327 330 331 332 333 333 332 332 332 330 331 331 330 331 332 332 333 335 335 334 334 333 331 330 329 327 324 320 318 318 319 319 319 319 319 319 319
327 329 328 328 330 332 333 332 328 327 329 330 332 336 336 335 339 338 334 333 332 328 330 335 335 336 343 347 346 346 346 343 342 342 341 340 340 341 340 339 339 341 342 339 335 334 331 327 327 329 332 334 333 331 331 331 332 332 333 332 332 332 332 331 332 331 331 333 334 333 331 330 329 329 329 328 327 323 319 316 316 317 317 318 318 317 317
327 326 325 327 329 328 329 329 327 327 328 329 331 333 330 327 330 329 325 325 326 324 325 329 328 330 340 345 344 344 344 343 343 342 340 340 340 341 341 340 338 336 335 334 332 330 330 331 332 334 335 335 333 331 331 331 332 333 334 333 333 333 333 332 332 332 331 332 332 332 331 329 329 329 328 328 328 327 323 320 318 317 316 316 316 316 315
327 326 326 326 328 328 328 329 330 330 330 329 329 327 324 322 323 325 324 325 326 326 326 325 323 328 339 345 344 345 346 344 343 343 342 340 338 338 339 338 334 330 332 335 334 334 335 336 335 334 335 336 335 333 332 332 333 334 333 333 333 332 332 332 332 332 331 331 330 331 331 330 329 328 328 327 327 327 326 325 323 320 317 316 315 314 314
325 326 327 327 327 327 327 330 332 331 328 326 326 326 325 324 324 324 325 325 325 326 327 326 325 328 333 338 341 344 347 347 345 343 340 338 336 335 335 336 336 336 337 338 337 337 337 335 334 336 337 336 334 333 332 333 333 333 332 332 332 332 332 332 330 330 331 331 329 328 329 328 327 326 327 327 327 327 327 326 325 322 318 315 314 314 314
325 326 326 326 325 325 326 329 331 329 327 328 328 327 327 326 325 325 325 326 327 328 327 328 330 331 329 330 335 339 342 344 343 341 338 336 334 332 333 335 339 340 338 337 336 335 334 335 336 337 336 334 333 332 332 331 331 331 330 330 331 331 332 330 328 328 330 329 328 327 327 327 326 325 326 326 327 326 326 325 325 322 319 316 315 316 316
327 325 324 324 325 324 325 329 329 327 327 327 326 325 326 327 327 327 327 327 328 328 328 331 334 333 329 328 328 328 330 335 339 339 338 336 334 334 335 337 337 336 334 334 334 334 335 336 336 334 333 332 331 330 330 330 329 329 329 329 330 330 330 328 327 327 328 328 327 326 326 325 325 325 325 325 324 324 324 323 323 321 319 317 316 317 316
325 324 324 325 324 323 324 327 327 325 325 324 324 326 327 327 326 326 327 327 327 327 330 334 335 333 330 328 326 326 328 332 335 337 337 335 333 332 333 333 332 331 331 331 332 334 335 334 333 331 330 330 329 327 327 328 328 328 328 329 330 329 328 327 327 327 326 327 326 326 325 325 324 324 324 323 323 323 322 321 320 319 318 317 316 315 314
325 326 326 326 325 324 325 326 326 325 324 322 323 325 326 325 325 325 326 326 326 326 328 331 329 327 326 327 328 328 327 327 332 336 334 332 332 331 330 331 331 330 331 331 331 332 332 332 331 330 329 328 326 325 325 326 326 327 328 329 329 328 327 326 326 326 326 325 325 325 325 324 323 323 322 322 322 322 321 320 319 317 316 315 313 312 311
325 325 325 325 325 325 325 325 325 326 325 323 323 324 324 324 325 325 326 326 326 326 326 325 323 323 324 325 326 326 325 330 341 340 332 330 332 331 330 331 331 330 329 329 328 327 328 328 328 327 327 326 325 325 325 325 325 326 327 328 328 327 326 325 325 325 325 324 324 324 324 323 323 322 322 321 321 320 320 319 318 316 314 313 311 310 309
323 323 323 322 322 323 323 323 324 324 324 324 324 324 325 325 324 325 326 327 326 326 325 323 322 323 324 324 325 324 325 334 341 336 329 328 331 331 331 331 329 327 326 326 326 326 326 326 325 325 325 325 325 325 325 325 325 326 327 327 327 326 325 325 325 324 324 323 323 322 322 322 321 321 320 320 319 319 319 319 318 317 314 312 310 309 308
322 323 324 324 323 322 322 323 324 324 325 326 326 326 326 325 324 325 326 326 325 325 324 323 323 323 322 321 324 326 328 333 333 330 328 328 330 331 331 330 327 326 326 326 326 326 326 325 324 324 323 323 323 324 323 324 325 326 325 325 325 325 324 323 323 323 322 322 322 321 321 321 320 320 320 319 318 317 316 316 316 316 314 312 310 308 308
322 324 325 325 324 323 322 323 323 324 325 326 326 326 326 326 325 326 326 325 325 325 325 324 324 323 322 323 328 332 334 333 331 329 328 328 329 331 331 329 327 327 327 327 326 326 325 324 323 323 323 323 323 323 322 322 324 324 324 324 324 324 323 323 323 322 321 321 321 320 320 320 319 319 318 316 315 314 313 313 313 314 314 312 310 309 308
323 323 324 324 324 323 323 323 323 324 324 325 325 325 326 326 326 326 326 326 328 329 329 329 328 326 325 328 334 335 334 333 332 330 330 330 331 331 330 329 328 328 327 326 325 325 324 322 321 322 323 323 322 322 321 322 323 323 323 323 323 322 322 322 322 321 321 321 319 318 318 317 316 315 315 314 313 313 313 312 312 313 313 313 311 309 309
323 323 324 323 323 324 324 323 324 325 325 325 324 325 325 326 326 327 327 328 329 329 329 331 333 332 331 332 334 334 333 333 332 331 330 330 330 329 328 328 328 327 326 325 324 323 322 320 320 322 323 322 321 320 320 321 323 322 321 321 322 321 320 321 320 320 320 320 318 316 316 316 315 314 314 313 313 313 313 313 312 312 312 312 311 310 309
324 324 323 323 323 323 323 323 324 325 324 324 324 325 326 327 327 328 329 329 328 327 327 330 332 333 331 331 332 332 332 331 330 330 329 329 328 327 327 327 325 324 324 324 324 323 322 322 322 322 322 321 319 318 317 319 320 320 319 320 320 319 318 319 319 318 319 319 317 316 315 315 314 314 314 313 313 313 313 313 313 311 310 310 310 310 309
323 323 324 324 324 323 323 324 324 324 324 325 325 326 327 327 327 327 328 327 326 325 326 328 329 328 327 326 327 327 328 328 327 327 327 325 324 325 326 326 324 323 323 324 323 322 322 323 323 322 321 320 319 317 316 316 317 317 316 317 317 317 316 317 316 316 317 317 316 315 315 314 313 313 313 313 312 312 312 312 311 310 309 308 309 309 308
323 323 324 324 324 324 324 324 324 324 324 325 325 326 326 326 326 325 325 325 325 325 325 326 326 325 324 323 323 324 324 323 323 323 324 324 324 325 326 325 323 322 323 323 322 320 321 322 322 321 319 319 319 318 317 316 316 315 314 314 314 315 315 315 315 315 315 315 315 315 314 313 313 313 313 312 312 312 312 311 309 309 308 308 308 309 308
323 323 323 324 324 325 324 324 324 325 325 325 325 325 325 324 323 323 324 324 324 324 324 324 324 323 322 322 323 323 323 322 322 323 325 325 324 324 325 324 322 322 322 322 320 319 320 322 321 320 319 317 316 316 315 315 314 314 312 311 311 311 311 311 312 313 313 314 314 314 314 313 312 312 312 312 311 311 310 309 308 308 308 308 308 308 307
323 323 323 324 324 324 324 324 324 325 325 325 325 325 324 323 322 322 323 323 322 322 321 321 321 321 322 323 323 324 324 323 324 325 324 323 323 323 323 322 321 321 322 321 319 318 319 320 319 318 317 316 315 314 313 311 311 311 310 309 309 309 309 309 310 311 311 311 311 310 310 310 310 309 309 309 309 309 308 308 308 308 308 307 307 307 307
323 323 323 323 323 324 324 324 324 324 324 324 324 324 324 324 323 322 323 323 323 322 322 321 321 322 323 324 324 325 325 325 325 325 324 324 324 324 322 322 321 321 321 320 319 317 317 317 317 316 316 316 315 313 310 309 309 309 308 308 308 308 308 308 309 309 309 310 309 309 308 308 308 307 307 307 307 307 307 307 307 307 307 307 307 306 306
322 323 322 323 323 323 323 323 324 323 323 324 325 324 324 324 323 322 322 323 323 323 323 323 323 323 323 324 324 324 324 324 324 324 323 323 323 323 322 322 321 320 320 320 318 316 316 316 316 315 315 314 311 308 308 309 309 309 308 308 308 308 308 308 308 308 308 308 308 308 308 308 307 306 307 306 306 306 306 306 306 306 306 306 306 305 305
322 322 322 323 323 323 323 322 323 322 323 324 325 324 324 324 323 323 323 323 323 323 323 323 323 323 323 323 323 324 324 324 324 323 322 321 321 321 321 321 320 319 320 320 318 317 317 316 314 312 310 309 307 307 309 310 310 309 308 308 308 307 307 307 307 307 307 306 306 306 307 307 306 306 306 305 305 305 305 305 306 305 305 305 305 305 305
322 322 323 323 323 323 322 323 323 323 324 325 325 324 324 324 324 324 324 323 322 322 323 323 323 323 322 322 322 323 322 323 324 323 321 320 320 320 321 320 319 318 318 318 317 316 316 314 310 308 307 307 307 308 310 310 309 309 309 308 307 306 306 306 306 306 306 306 305 305 305 306 305 305 305 305 305 305 304 304 305 305 304 304 304 304 304
321 321 322 322 322 322 322 323 323 323 323 323 324 324 324 323 324 324 324 322 321 321 322 321 321 322 322 322 322 322 322 322 322 322 321 320 320 320 320 320 318 317 316 316 315 314 313 310 307 307 307 308 308 309 309 309 309 310 309 308 307 306 306 305 305 305 305 304 304 304 304 305 305 305 305 305 304 304 304 304 304 304 304 304 304 304 304
321 321 322 322 322 322 322 322 323 322 322 323 324 324 324 324 324 324 324 323 322 322 321 321 320 320 321 321 323 323 322 322 321 321 321 320 320 320 320 319 317 316 315 314 313 312 311 309 307 306 307 308 309 309 309 309 309 309 309 309 308 306 306 305 305 305 304 304 303 303 304 304 304 304 304 304 304 304 304 304 304 304 304 304 304 304 304
321 321 322 323 323 322 321 321 321 321 321 322 323 323 322 323 323 323 323 323 323 322 322 322 321 320 320 322 322 322 322 321 321 321 320 320 319 319 319 318 317 315 314 313 313 312 310 308 306 306 307 308 308 309 309 309 309 309 309 308 308 307 306 306 305 304 304 303 303 303 303 304 304 304 304 304 304 304 304 304 304 304 304 303 303 304 303
321 320 320 321 323 323 321 321 321 321 321 322 323 322 321 321 322 322 322 322 322 321 322 322 321 320 320 322 322 321 321 321 321 321 320 319 319 319 318 317 317 315 314 314 314 313 311 309 307 307 307 307 308 309 309 309 309 309 309 308 307 307 306 305 304 303 303 303 303 303 303 303 303 303 303 303 303 304 304 303 304 304 303 303 303 303 303
Wind_Speed
9 9 9 7 6 7 6 7 12 16 16 14 9 7 7 9 8 6 11 16 16 14 12 12 12 11 10 9 9 9 8 8 8 8 9 9 9 9 10 12 12 12 12 12 12 15 20 22 23 24 25 27 30 28 26 29 32 33 32 33 33 31 29 28 30 29 27 26 23 20 19 19 18 18 18 17 16 16 15 12 9 8 9 9 10 12 12
8 9 11 9 7 6 5 8 8 11 13 12 11 9 7 8 7 8 13 14 13 13 14 13 13 11 10 9 8 9 9 8 9 9 9 9 9 10 11 12 13 13 12 12 12 14 18 22 23 24 25 27 29 28 26 26 29 32 33 34 33 31 27 26 30 31 28 25 23 21 22 22 22 21 19 18 17 16 14 12 11 11 11 11 11 12 11
2 6 10 12 11 6 5 10 10 8 9 9 9 9 8 8 6 8 14 13 8 9 11 10 9 8 9 9 8 8 8 9 9 8 8 8 9 10 11 11 12 12 12 12 11 12 18 23 24 25 27 28 29 28 27 28 30 33 34 33 32 30 23 22 27 30 28 26 24 24 24 23 22 21 19 17 17 16 14 14 13 12 11 12 12 11 11
1 4 7 11 12 8 8 11 10 10 9 6 5 4 4 7 7 7 12 9 6 6 7 8 8 9 9 9 8 7 6 6 7 6 5 6 7 9 10 10 11 12 13 13 13 14 19 23 25 26 27 28 29 29 29 28 28 30 30 27 26 23 17 19 26 28 27 26 26 25 24 23 21 20 18 18 18 17 17 16 14 13 12 13 12 12 13
1 4 8 8 7 6 8 8 8 9 7 3 4 7 8 9 7 7 7 6 5 5 7 8 8 9 9 7 7 7 6 7 7 5 3 2 4 7 9 9 10 12 12 12 15 18 22 24 26 28 31 31 30 29 28 27 25 23 22 23 23 18 15 22 29 28 26 27 26 25 24 22 21 20 19 19 20 20 19 17 15 14 13 13 13 13 13
1 3 6 6 4 4 6 3 2 3 4 5 5 7 11 8 2 7 5 5 7 8 9 9 9 8 8 7 7 8 7 7 6 5 3 2 2 4 7 9 10 10 10 11 16 21 25 26 27 29 31 31 29 28 28 27 25 22 21 23 24 21 22 28 31 28 26 26 26 25 24 23 22 22 22 22 22 21 20 17 16 15 14 13 13 12 11
2 2 5 3 4 5 4 2 4 7 8 7 6 7 7 6 7 10 9 8 8 8 8 9 10 9 9 8 8 8 8 7 6 6 5 4 4 3 6 8 9 9 9 11 15 19 22 25 27 28 29 29 29 29 30 31 29 24 20 21 24 26 28 30 30 28 28 27 27 26 24 23 24 24 24 24 24 22 20 18 17 16 15 13 12 11 11
2 2 4 2 4 4 2 4 4 4 6 7 7 6 5 5 5 6 9 8 8 9 8 7 7 7 6 6 6 6 8 7 7 7 7 7 7 6 7 8 9 12 15 17 19 21 24 28 28 28 30 31 31 32 32 32 30 25 20 20 25 28 29 30 29 29 28 27 27 27 26 26 26 27 27 27 26 23 21 20 18 17 16 15 13 13 14
1 2 2 1 4 5 3 3 4 2 2 4 4 2 3 3 4 4 7 7 7 9 9 8 8 8 7 7 4 1 3 5 8 8 7 6 7 8 8 8 11 19 24 24 23 25 27 29 29 30 31 32 32 31 30 29 27 24 22 23 27 30 30 31 30 29 29 29 28 28 27 27 28 29 29 28 26 24 22 21 20 18 18 16 15 16 16
1 2 1 1 3 4 2 1 3 3 4 3 4 3 4 5 5 5 6 7 7 9 8 8 8 7 6 5 4 5 4 2 3 5 4 3 5 7 8 8 9 16 22 25 26 28 29 28 28 32 34 34 32 30 28 28 27 25 24 25 27 30 32 31 30 30 30 29 29 29 29 30 31 31 29 28 27 25 23 22 21 20 19 18 16 15 14
1 3 1 2 2 3 2 1 3 5 5 5 6 4 5 7 7 5 6 7 7 9 8 7 7 6 5 3 1 3 3 5 5 6 3 1 5 9 12 12 12 14 20 24 26 27 27 26 29 34 36 34 32 29 27 28 27 24 25 27 28 31 32 32 30 29 29 30 30 30 31 32 32 30 29 28 26 24 23 22 21 21 20 19 18 17 15
3 5 2 1 1 3 4 3 5 6 8 10 9 2 5 7 7 4 7 8 6 7 7 7 7 6 4 5 3 3 2 2 3 7 7 6 8 10 12 14 13 14 19 23 25 26 27 28 31 35 36 33 30 28 27 25 24 25 26 28 30 32 31 29 28 28 29 30 31 32 34 35 34 32 31 29 26 24 23 21 21 21 21 21 20 17 16
3 5 5 3 1 2 4 4 5 5 7 9 5 3 5 6 7 5 9 9 7 6 7 6 5 3 4 4 2 3 4 5 0 6 9 11 13 13 14 15 14 13 14 17 22 24 27 30 33 35 35 32 28 26 24 23 24 27 29 29 29 29 28 28 27 28 29 30 33 36 35 30 25 22 22 21 20 20 19 18 20 21 21 21 20 16 12
2 1 1 2 1 2 3 5 6 5 4 2 2 3 4 4 6 8 9 9 8 8 7 6 5 4 4 6 7 7 8 6 3 7 8 10 12 13 15 16 15 13 12 13 19 23 27 31 34 35 34 29 27 25 24 26 27 27 27 28 28 28 27 27 27 28 30 32 31 25 17 9 7 9 10 11 10 10 14 18 19 18 16 16 16 15 13
3 3 3 2 2 6 3 2 4 4 2 5 5 3 1 3 7 9 9 9 9 8 8 7 8 8 8 8 7 7 8 6 6 8 7 8 9 10 13 15 15 14 10 6 7 16 26 31 31 33 32 27 25 25 22 23 22 17 15 19 23 26 27 27 28 29 29 26 19 14 12 11 11 12 12 10 9 10 14 16 14 13 11 11 11 12 13
3 4 1 2 3 6 5 2 1 1 1 2 2 2 3 5 6 7 7 8 8 9 9 9 9 8 7 7 7 7 8 6 4 7 6 7 8 9 11 12 11 12 14 12 9 7 11 25 28 28 29 25 21 20 18 15 14 11 8 9 11 14 17 18 21 23 20 14 10 11 14 12 9 10 13 13 11 11 12 11 10 14 17 13 10 10 11
2 3 3 3 1 4 4 4 4 4 5 5 5 6 6 6 6 5 6 7 8 9 9 8 7 7 6 7 7 7 7 4 4 6 6 7 10 11 13 16 18 18 17 17 6 15 14 13 26 25 24 23 20 18 15 12 9 7 6 7 7 8 6 6 8 10 11 9 6 6 6 5 4 9 14 16 14 12 11 11 10 13 18 19 15 12 10
6 6 6 4 5 5 6 6 6 6 7 7 7 7 7 5 5 5 6 7 7 7 7 6 5 5 6 7 7 7 7 7 6 7 8 9 12 14 16 19 22 20 16 16 13 8 21 4 19 23 20 20 19 15 12 8 7 8 9 8 7 6 4 2 4 4 5 6 5 4 6 8 10 11 11 12 13 13 14 13 11 12 15 19 20 17 13
5 4 9 12 10 8 8 9 7 8 8 7 6 5 6 6 6 6 7 7 6 6 7 7 6 6 7 6 6 6 7 8 7 7 7 9 11 12 16 19 22 23 19 16 14 3 16 7 15 21 18 18 16 12 11 9 8 9 7 6 6 5 4 3 3 3 3 5 7 8 10 11 12 12 11 11 11 12 14 15 15 15 17 20 22 20 15
4 5 6 7 10 8 7 8 7 7 8 8 8 7 7 8 8 8 8 7 5 4 6 6 7 7 7 6 6 7 7 6 6 6 6 8 10 12 17 22 22 22 20 18 17 8 8 6 13 21 17 15 14 11 12 10 6 5 5 4 5 6 5 4 3 4 6 8 10 10 9 8 8 9 10 9 9 10 12 15 18 19 20 20 20 15 12
3 4 4 2 4 6 7 9 8 7 8 9 10 9 9 10 10 9 8 8 7 5 5 7 8 7 7 7 7 7 6 4 5 5 5 8 12 13 16 21 24 22 19 18 23 20 5 4 11 19 15 13 13 11 9 4 1 4 7 6 5 4 3 2 3 6 9 10 10 9 7 7 8 8 8 7 8 9 12 14 18 19 19 19 17 11 9
2 4 3 3 2 0 4 5 4 5 5 7 7 7 8 9 9 8 8 8 8 7 5 6 8 6 5 6 7 7 6 4 3 5 6 8 12 14 17 20 24 25 22 18 21 24 18 10 9 13 13 12 10 6 1 2 3 5 6 6 5 4 2 1 3 5 7 8 8 7 8 10 10 7 6 5 6 8 11 14 16 15 13 14 14 11 8
3 3 4 4 4 4 3 2 2 2 4 5 8 7 8 7 7 7 7 6 7 7 6 3 7 7 5 7 8 7 6 6 6 7 9 11 12 14 18 20 20 21 23 21 19 20 20 15 10 11 12 8 3 1 4 6 6 6 5 5 4 4 3 1 0 1 2 3 5 6 8 11 11 9 7 6 5 5 7 10 11 10 8 6 7 7 6
5 5 5 4 3 2 1 2 5 5 6 6 7 7 7 7 7 6 6 6 5 6 6 3 4 7 7 7 8 8 6 7 9 10 11 13 16 17 17 18 18 18 19 20 18 16 18 17 12 9 6 5 5 6 10 10 8 6 6 5 4 3 2 2 4 5 4 3 6 8 10 11 12 12 11 9 7 5 6 7 7 6 5 4 3 3 4
6 4 3 2 2 1 2 4 7 7 7 7 7 6 7 7 6 5 6 6 5 6 7 5 3 7 8 7 7 9 9 8 11 13 12 12 15 15 14 15 17 18 18 17 16 16 18 14 8 6 10 12 11 12 11 9 8 8 6 4 3 2 0 2 2 3 3 3 7 11 13 14 14 14 13 13 11 8 7 6 5 4 4 4 4 5 6
5 3 2 1 1 3 5 6 7 7 7 6 5 4 5 6 6 6 7 7 7 8 7 6 7 4 7 11 10 9 9 9 12 13 12 11 12 13 13 13 15 16 18 19 19 19 16 10 8 12 16 16 14 10 8 8 8 8 6 4 3 1 1 2 1 1 3 4 6 9 10 13 14 13 13 14 12 11 11 10 9 8 8 8 7 7 7
3 2 3 2 4 7 7 5 4 4 5 5 5 5 6 7 8 8 9 9 9 10 9 7 11 10 2 12 15 13 13 13 12 11 11 11 12 13 15 18 19 19 20 20 19 16 13 11 13 14 13 14 14 10 7 7 8 7 5 3 1 0 1 1 3 5 6 6 7 8 9 10 11 10 11 11 11 11 12 11 11 11 11 10 9 8 9
4 6 6 5 5 5 5 4 4 4 5 6 6 6 7 9 8 7 7 8 8 10 10 11 13 12 4 6 9 10 11 11 9 10 11 12 13 14 17 20 22 21 18 16 16 15 14 14 15 13 11 12 13 10 6 6 7 5 3 2 1 3 5 6 7 7 6 6 7 7 8 9 9 8 8 9 10 10 10 9 9 12 12 11 10 11 11
7 7 7 6 6 6 6 6 7 7 7 7 7 7 7 8 7 7 7 8 8 8 9 11 12 11 6 0 3 5 7 7 7 10 12 13 11 11 12 16 19 18 15 14 15 16 17 16 14 14 14 12 10 8 7 7 7 5 2 2 3 5 6 6 6 5 6 7 6 5 6 7 7 7 7 8 8 8 8 7 8 12 13 13 13 12 10
7 7 8 8 9 9 9 9 8 8 8 8 8 7 7 7 7 7 7 8 8 7 8 9 9 10 9 5 1 1 4 8 12 15 16 15 13 11 12 14 16 16 16 18 19 19 18 16 15 15 13 9 8 8 7 6 6 4 2 1 1 1 2 2 2 4 7 7 5 4 5 6 6 6 7 7 8 8 8 7 9 12 14 14 13 11 8
8 9 11 11 10 10 9 8 8 7 7 7 8 8 7 7 7 7 7 7 7 7 8 8 7 7 9 9 8 9 8 6 13 17 17 14 9 5 4 7 10 8 5 7 11 12 13 15 17 16 13 10 10 9 6 5 4 2 2 3 5 5 4 2 3 5 7 6 4 3 4 5 6 7 8 9 9 8 8 8 11 13 13 13 13 11 8
10 10 11 10 9 8 8 7 7 7 7 7 7 6 6 6 6 7 7 6 6 7 7 7 7 8 12 15 16 14 12 9 6 9 8 7 11 14 13 13 12 7 3 2 7 11 13 15 16 13 10 9 7 5 4 3 3 3 4 6 8 7 5 5 5 6 5 4 4 4 5 7 8 9 10 10 10 10 11 12 13 13 12 13 13 10 7
8 8 8 7 7 7 6 6 6 6 6 7 6 6 6 6 6 5 5 5 7 8 7 7 10 13 15 17 15 11 11 11 5 6 13 15 15 14 11 10 11 9 6 3 2 4 8 13 13 9 6 5 4 2 2 2 2 3 6 8 9 8 6 5 7 7 6 5 6 7 8 9 9 9 9 8 8 11 13 13 12 11 10 10 8 5 2
6 5 5 5 6 6 6 6 6 5 6 6 6 6 6 6 5 6 7 6 6 7 9 12 16 18 18 17 15 12 10 8 3 6 10 12 14 14 13 13 15 15 14 11 8 7 8 11 11 8 5 4 3 4 5 4 4 5 6 8 9 8 6 5 7 8 7 6 7 8 9 9 8 9 8 6 7 10 12 11 10 11 10 8 5 3 2
5 4 4 4 5 5 6 6 6 6 6 6 6 6 6 6 7 8 8 8 8 10 14 17 19 19 17 16 15 13 9 2 6 9 11 12 13 12 13 16 17 17 15 14 12 10 9 8 6 5 6 6 6 6 6 5 6 5 5 6 8 8 6 6 7 9 9 8 8 9 9 8 7 7 7 6 7 8 7 7 9 12 11 9 7 5 3
5 4 4 4 5 6 6 6 6 6 5 5 6 6 6 7 9 10 10 12 14 15 16 18 18 16 14 14 13 10 5 8 14 15 15 17 17 15 14 15 16 15 14 13 13 13 12 9 7 5 5 6 5 5 4 5 6 6 5 6 7 8 7 7 8 9 10 9 9 8 8 7 7 7 6 6 6 6 5 5 8 12 13 11 9 7 7
6 5 4 4 5 6 6 6 7 7 7 6 6 7 7 9 12 14 16 18 18 16 16 17 14 13 14 12 5 2 8 14 16 15 16 19 19 17 16 16 16 15 13 12 13 13 11 8 7 7 5 4 3 1 1 2 6 5 4 5 7 7 7 8 9 10 10 9 9 9 9 8 7 6 5 3 3 4 4 4 5 9 12 13 11 10 10
8 8 6 6 7 7 7 9 10 10 9 7 8 9 10 11 14 16 17 18 17 16 17 16 14 15 17 11 3 11 13 15 16 16 16 17 17 16 15 14 13 12 11 11 13 13 9 7 7 7 5 3 1 2 2 3 6 5 4 5 6 6 7 9 10 10 10 10 9 8 8 9 9 7 6 5 3 3 4 4 4 6 10 13 14 12 12
7 8 8 8 8 8 9 10 10 10 9 9 9 10 12 13 15 15 14 13 13 15 16 16 16 14 10 2 7 10 11 14 16 16 14 14 15 16 14 11 12 13 14 14 13 11 8 7 7 7 6 4 2 2 1 4 6 4 4 6 6 5 6 9 9 9 10 11 10 8 8 11 11 9 7 6 6 7 9 8 6 5 5 8 12 14 15
7 7 8 9 8 8 8 8 7 9 11 11 10 10 12 13 13 12 11 10 11 11 12 13 13 11 6 3 5 8 12 17 19 18 17 17 17 15 13 11 11 12 12 11 10 9 8 8 8 8 7 6 4 3 3 4 4 2 3 6 7 6 7 9 8 8 10 12 13 12 11 11 11 10 9 9 9 9 10 10 9 7 6 6 8 14 18
8 8 9 10 9 8 8 6 6 9 11 10 10 11 12 12 11 10 9 9 11 11 12 12 12 12 13 14 13 12 13 14 16 15 14 13 12 9 6 6 9 9 9 10 11 10 10 9 9 8 7 7 6 5 4 3 2 1 2 3 5 7 9 11 11 10 11 13 15 14 13 12 12 11 11 11 10 10 10 10 9 7 6 6 8 11 13
9 10 9 8 8 9 9 7 6 7 8 8 9 10 9 9 9 9 9 9 10 11 12 12 12 12 12 13 14 15 15 13 12 10 7 6 8 7 6 8 9 9 9 11 12 11 11 11 9 8 7 8 8 7 5 3 1 3 6 7 7 6 7 9 10 11 13 14 15 14 12 11 12 14 15 14 14 15 15 12 10 7 5 6 8 10 12
9 9 8 6 6 8 9 8 7 6 6 8 9 9 8 8 8 8 9 10 10 11 13 13 14 14 11 7 6 8 8 7 6 4 4 6 6 5 6 10 11 10 10 12 11 10 11 12 11 9 9 10 9 7 4 3 3 5 6 8 8 7 5 4 4 5 6 9 11 11 10 10 10 11 13 13 13 14 14 12 9 7 7 5 4 7 12
9 8 7 7 7 7 7 7 6 5 5 7 8 8 7 6 6 6 6 7 8 8 8 7 8 8 5 1 2 5 6 6 6 5 5 6 4 4 9 14 13 11 11 11 9 10 12 13 13 12 12 11 8 5 3 1 1 3 4 6 7 8 8 9 10 9 6 2 2 4 6 6 3 2 2 2 2 4 8 9 7 7 7 5 3 5 11
9 9 8 8 8 7 7 7 7 6 7 8 7 6 6 5 5 5 5 5 6 6 5 4 3 2 2 2 3 4 6 6 7 8 7 4 4 7 11 13 13 12 11 9 9 12 14 14 13 13 12 10 7 5 3 3 2 1 3 4 4 4 5 6 7 10 10 8 7 6 5 3 1 2 2 2 3 3 3 6 6 4 6 7 7 8 12
7 8 8 8 7 7 7 8 8 8 8 7 6 6 6 6 5 6 6 5 5 6 6 6 5 4 3 4 4 1 2 3 4 5 5 4 5 9 12 12 11 10 9 8 9 12 12 12 11 11 9 7 6 5 6 6 4 3 4 4 3 3 4 5 5 7 10 11 12 11 9 5 2 3 3 3 6 6 1 6 7 5 6 7 7 9 12
7 7 7 7 7 7 7 8 9 8 6 5 4 5 7 7 7 7 7 7 6 7 7 6 6 5 5 5 5 3 1 2 2 3 4 5 7 11 12 10 9 8 9 10 11 9 8 10 11 10 8 7 7 8 8 7 5 5 5 4 4 4 4 3 2 3 6 9 13 16 13 7 4 1 1 3 6 6 1 5 6 5 5 6 7 8 11
7 7 7 7 8 7 7 8 7 6 4 4 5 6 8 9 9 8 8 8 8 8 8 7 6 6 7 8 6 4 2 1 1 1 3 4 6 9 10 9 9 10 10 10 11 10 10 11 12 10 9 9 9 9 8 7 5 5 6 7 7 5 3 2 1 3 7 9 11 15 14 9 4 3 2 4 5 5 2 3 5 5 4 4 5 8 10
9 9 8 8 7 7 6 6 5 4 4 5 6 6 8 9 8 8 8 8 9 9 9 9 8 8 9 9 8 7 6 6 5 4 4 4 6 8 10 11 13 13 12 11 11 12 13 13 12 11 10 10 8 6 7 8 6 5 7 7 6 4 3 3 5 7 9 9 10 13 15 11 4 2 4 4 5 6 3 2 4 4 3 2 2 6 8
11 10 9 8 6 5 5 6 6 5 6 6 6 6 6 6 6 7 9 9 8 8 9 10 10 10 8 8 8 8 9 8 7 7 6 5 7 9 11 13 15 15 13 11 11 13 14 14 14 12 11 9 7 5 6 7 7 7 8 9 7 6 5 6 6 7 7 8 9 10 11 10 6 1 5 4 5 6 6 5 5 5 5 5 5 7 9
13 12 12 11 10 8 9 10 9 9 9 8 6 6 7 7 7 9 11 10 7 7 8 8 9 10 10 8 7 7 6 5 5 7 8 7 8 9 11 13 16 16 14 12 12 14 16 17 16 14 12 10 8 7 7 7 8 9 9 8 7 7 8 9 7 6 5 4 5 7 7 7 6 4 2 3 5 7 7 6 6 7 9 9 8 7 7
16 17 16 14 11 10 11 13 12 12 11 9 8 8 9 8 7 9 11 8 5 5 6 6 6 7 8 8 7 6 5 4 5 7 7 8 9 10 11 13 16 17 16 14 13 14 16 17 17 16 14 12 9 8 8 8 8 8 8 7 6 6 8 9 7 5 4 2 2 4 5 7 8 7 6 5 5 6 7 5 4 4 6 8 9 8 8
Wind_Direction
208 220 243 247 207 206 216 209 206 209 223 240 233 205 185 157 154 204 198 171 167 183 186 179 178 170 162 165 158 152 158 160 161 158 155 164 166 158 163 175 178 179 180 182 179 177 178 178 180 184 185 186 190 195 195 189 185 184 182 179 180 185 187 191 198 205 207 207 209 211 211 215 221 223 226 230 234 244 254 259 263 269 272 271 278 287 291
218 240 251 254 250 246 272 287 255 213 212 227 231 226 202 182 180 174 177 182 180 181 185 183 180 172 159 155 149 142 142 144 154 163 165 171 175 168 166 174 180 181 181 182 179 175 178 180 180 182 184 187 192 196 192 183 178 178 177 176 177 180 185 196 204 205 205 205 208 211 211 214 219 223 228 233 236 241 244 245 251 258 261 264 274 281 281
245 257 252 247 250 259 274 280 277 256 240 235 232 235 224 220 220 163 163 183 199 193 183 171 164 154 139 137 142 146 147 139 140 151 166 179 186 183 177 174 177 180 179 179 179 177 181 185 182 180 181 185 188 184 175 166 163 164 166 167 171 174 182 199 204 202 202 204 206 209 212 216 220 226 231 232 233 236 237 239 246 250 255 262 269 271 272
309 278 262 237 228 245 262 260 261 258 253 248 245 250 235 226 216 161 156 176 209 204 167 138 137 137 131 136 138 133 126 122 127 144 173 195 196 193 190 175 171 178 178 175 180 184 186 186 182 178 175 175 175 171 163 157 156 157 158 160 167 174 189 206 203 199 201 204 206 210 213 217 221 225 228 230 232 235 237 239 245 249 251 257 263 267 270
208 271 281 256 219 224 241 247 259 263 269 318 340 332 309 263 209 155 157 171 169 153 128 114 117 117 112 117 121 112 102 99 102 114 138 187 182 181 185 178 171 178 180 176 178 183 186 186 182 177 172 170 170 166 156 145 142 150 162 174 185 196 213 214 208 206 208 209 210 212 214 217 222 224 227 230 233 235 237 242 248 251 250 253 261 267 268
178 275 296 294 274 233 227 234 325 320 334 0 7 350 322 298 165 124 122 114 105 103 107 116 123 120 120 130 135 134 129 117 114 129 144 169 181 167 170 174 179 183 186 181 178 180 184 183 178 173 171 170 165 157 151 145 147 160 181 193 201 211 216 213 210 211 213 212 213 215 216 219 222 224 227 230 233 235 237 242 248 251 252 254 259 262 263
121 30 23 341 275 245 238 302 31 31 16 10 20 23 10 17 75 101 99 90 93 98 110 130 137 139 144 143 139 138 134 129 139 159 183 197 205 198 177 175 181 184 186 185 181 178 176 171 167 166 167 163 154 151 156 161 166 181 195 201 205 209 208 207 209 211 212 213 215 217 218 220 223 225 227 229 231 233 235 238 242 248 252 255 257 259 262
127 81 83 157 258 285 341 360 359 17 26 27 24 16 21 42 62 106 118 119 121 114 113 120 117 116 115 97 97 123 129 136 154 174 197 201 203 213 203 188 184 185 188 188 182 173 166 163 164 164 164 160 155 157 165 169 175 188 200 204 206 205 205 206 209 211 212 213 215 218 218 220 223 225 226 228 230 231 232 235 238 243 248 251 255 258 263
112 110 129 174 305 315 346 360 342 6 48 59 71 33 309 8 57 101 123 126 122 113 112 107 91 77 68 57 28 21 142 187 204 189 182 195 205 203 195 189 189 190 190 187 177 168 163 163 165 165 162 160 160 163 166 171 181 194 203 208 207 204 206 210 212 212 214 215 217 219 219 220 224 226 226 228 229 229 231 234 236 241 245 247 254 260 262
46 62 15 335 313 293 251 287 347 12 353 350 91 95 300 329 34 73 112 119 109 106 109 108 96 77 64 60 344 338 52 115 187 159 153 202 193 167 150 150 167 175 178 177 171 166 163 163 166 165 162 164 167 170 171 177 189 202 207 209 208 205 208 213 214 214 216 218 219 221 221 223 225 226 226 227 228 229 230 232 236 240 243 247 253 255 255
76 86 13 269 251 277 275 311 357 6 9 23 56 50 303 314 355 34 95 105 103 107 107 102 95 81 77 99 322 336 77 105 127 143 158 147 127 128 131 138 145 149 158 166 167 164 161 162 165 166 166 169 172 176 181 186 194 204 209 208 207 208 212 215 216 217 218 220 222 224 225 227 228 227 228 228 228 229 230 232 237 241 243 245 246 245 251
157 136 164 268 227 269 292 356 18 14 39 56 61 38 283 299 322 16 88 86 84 100 97 85 91 102 140 165 210 270 251 235 174 160 155 132 123 122 124 134 144 148 153 160 165 166 164 163 165 168 169 172 176 181 187 190 195 202 206 208 208 211 215 216 218 221 222 222 224 226 228 229 228 227 229 229 227 227 228 230 237 242 243 240 238 242 254
196 164 186 225 214 267 306 1 27 34 51 61 82 182 249 296 329 28 77 79 73 81 81 78 90 125 166 155 104 8 347 335 357 139 132 127 129 128 127 134 146 154 158 162 165 167 165 163 165 170 172 174 181 187 188 189 195 202 206 208 210 212 216 219 221 225 226 226 228 230 232 234 235 235 237 236 230 227 228 232 238 241 240 236 234 241 251
336 342 250 264 291 301 340 18 13 21 66 113 173 201 250 310 14 38 52 61 61 62 66 69 64 46 44 51 43 24 9 8 83 117 117 123 129 134 139 145 152 161 169 165 159 159 161 162 166 170 172 175 181 185 188 193 198 204 209 212 216 219 221 225 226 228 231 232 232 233 235 249 274 272 267 267 262 250 246 248 248 241 230 227 234 237 235
58 29 356 8 273 280 294 43 6 3 121 191 197 176 277 356 45 51 44 46 51 52 56 53 46 42 36 29 27 18 6 20 96 125 131 132 130 130 138 148 156 157 148 124 132 157 161 161 165 169 169 173 179 177 180 189 191 189 196 207 217 222 224 228 229 231 235 235 233 238 243 245 249 250 249 254 259 256 255 259 267 264 244 225 228 235 235
115 126 209 210 230 280 305 77 86 17 88 207 198 110 38 16 42 61 53 41 37 42 47 38 30 32 29 21 24 17 5 17 111 142 140 129 123 121 125 129 127 116 100 75 16 311 186 160 161 167 163 159 160 153 148 158 162 155 163 189 209 221 226 231 234 235 236 233 230 239 241 239 249 259 253 247 247 257 264 264 271 282 283 270 246 240 245
75 123 205 213 207 327 351 62 91 69 55 46 49 65 60 36 26 40 52 41 30 36 43 37 31 26 15 12 13 7 4 26 102 116 97 87 94 96 86 76 74 76 91 108 95 308 289 168 151 157 155 144 135 130 130 138 148 161 190 204 213 230 240 249 251 242 229 223 225 231 225 219 248 261 253 244 240 245 250 247 247 270 288 293 281 258 248
23 6 329 346 40 43 38 54 77 81 69 61 56 61 69 61 39 44 56 41 26 32 31 20 16 6 357 1 358 357 16 40 63 79 82 80 84 90 86 81 87 92 91 104 113 314 303 268 136 139 146 138 127 125 134 150 166 177 191 199 201 216 231 250 269 250 218 221 241 255 259 261 263 264 257 243 233 228 231 239 244 248 263 277 278 270 260
64 347 313 329 355 23 42 42 41 52 59 62 65 68 73 66 53 56 54 28 15 38 40 22 12 3 1 11 16 29 49 55 54 67 87 87 82 95 107 108 113 116 108 98 99 17 302 287 122 120 127 131 131 142 155 165 180 184 190 199 196 198 210 226 255 263 253 266 279 284 287 288 283 277 269 251 234 227 229 237 246 252 256 260 262 264 263
125 185 242 309 331 343 27 45 31 28 38 40 38 44 54 48 35 40 48 27 6 40 67 64 55 39 24 29 48 67 74 74 73 77 96 104 100 107 121 126 126 124 120 116 110 96 299 277 121 117 123 128 134 150 152 146 144 143 149 181 192 190 199 215 249 279 281 282 284 283 285 286 273 260 255 247 235 230 232 238 244 251 253 250 250 255 251
105 180 185 98 340 331 16 37 24 14 31 42 33 23 35 43 29 21 34 30 15 31 68 79 73 58 42 47 66 79 79 79 93 100 104 109 109 111 120 126 127 125 125 126 123 125 172 242 115 114 121 122 121 128 128 113 82 125 136 153 164 160 174 226 269 277 271 267 270 266 246 229 222 219 224 236 237 231 236 244 247 247 246 246 249 252 239
125 203 175 119 138 41 40 40 22 8 27 64 62 31 27 43 36 19 19 18 8 10 38 77 93 92 80 85 93 95 95 96 101 113 117 109 105 108 112 116 123 128 131 136 137 142 157 173 134 120 127 130 124 119 107 279 235 163 153 165 170 162 171 233 266 264 253 247 252 244 220 211 208 200 202 221 226 223 230 242 250 253 252 251 250 247 233
151 166 138 134 145 134 118 140 133 39 19 62 76 50 25 29 32 24 16 8 2 353 353 70 121 133 134 127 124 117 127 147 148 143 143 133 123 123 122 122 127 134 139 147 154 155 157 162 152 130 129 134 138 253 232 206 185 171 171 173 171 176 190 192 104 115 187 213 228 221 211 211 208 198 191 193 194 200 215 228 243 256 261 257 251 247 238
99 90 91 100 109 112 114 95 83 53 26 42 59 48 26 13 11 10 357 346 344 327 316 317 151 156 153 144 140 137 145 163 165 163 162 152 146 145 143 140 144 150 156 162 167 163 158 155 144 132 151 219 230 197 185 181 172 170 173 163 163 188 192 104 85 89 107 169 193 187 186 195 199 195 192 191 182 169 179 198 218 239 255 265 261 234 214
81 71 67 82 82 343 347 57 62 45 31 36 40 37 18 348 335 342 339 330 324 309 307 305 245 187 162 146 147 148 153 172 177 171 168 163 157 156 158 158 157 157 161 165 165 162 160 157 156 187 211 209 185 165 169 175 169 168 171 170 190 219 294 45 65 71 76 161 184 181 179 182 185 188 195 201 197 183 171 168 174 187 194 192 181 164 159
77 62 23 351 46 26 32 52 50 29 20 20 14 10 349 325 322 332 322 307 300 296 292 298 302 267 168 153 155 155 152 161 170 170 170 171 168 166 168 166 158 155 161 165 169 175 180 187 199 197 190 182 172 161 160 166 168 169 170 172 191 225 321 315 261 150 98 134 172 180 179 179 184 192 203 209 202 186 172 163 159 165 166 162 163 160 149
61 37 17 33 62 50 45 51 43 15 8 9 358 346 337 330 331 325 306 293 296 300 304 341 360 356 102 151 153 154 155 157 166 180 188 187 185 185 177 166 163 170 179 181 184 194 202 195 185 175 167 169 174 170 156 159 166 166 161 163 189 240 32 80 122 125 117 122 143 161 168 173 180 192 205 212 208 195 188 181 172 168 166 161 156 148 138
51 45 47 59 63 46 28 26 23 9 11 17 6 348 338 334 332 330 325 326 332 333 339 360 9 6 14 146 150 153 156 157 168 186 193 195 196 190 180 178 185 194 195 191 194 198 191 177 171 161 146 150 158 157 157 169 170 163 161 160 124 111 110 104 103 109 114 119 132 151 166 173 179 186 198 211 217 214 212 206 188 174 166 156 145 137 130
55 50 45 41 32 25 22 23 20 13 9 6 358 350 347 345 344 350 352 348 348 348 344 345 350 354 356 36 164 158 154 159 179 193 194 196 196 189 188 195 198 191 176 169 173 172 166 164 162 151 142 143 148 151 155 158 151 142 137 126 105 98 103 105 101 109 125 131 134 149 168 176 185 192 194 199 208 214 217 209 186 173 166 156 143 133 126
46 44 43 31 16 17 24 21 13 7 4 1 357 355 357 357 355 350 344 340 336 332 329 332 339 347 354 2 18 219 203 190 190 195 199 200 202 210 212 199 181 167 159 158 159 159 160 162 156 147 143 147 158 163 164 156 147 140 127 171 203 171 146 130 103 121 138 140 138 158 177 184 193 197 191 187 193 201 204 191 172 168 167 161 151 142 141
38 38 41 33 17 13 19 15 1 355 356 356 350 345 347 354 350 335 322 321 319 314 316 324 327 329 333 332 323 317 306 248 206 203 206 202 187 167 141 121 103 75 67 126 148 162 164 150 137 135 139 144 147 150 146 141 151 178 234 218 197 183 176 161 124 133 146 151 148 162 176 179 178 172 162 157 160 167 168 161 156 157 159 158 157 159 169
40 34 31 27 13 2 1 355 341 338 341 338 332 332 336 335 323 312 307 309 314 315 319 326 327 329 331 326 319 322 329 315 239 189 160 109 85 81 86 95 93 70 28 177 181 182 166 139 124 123 131 133 131 130 128 138 176 223 213 180 161 150 147 147 140 143 153 154 140 143 152 156 156 150 144 145 150 152 151 151 151 152 154 156 159 166 178
41 30 16 8 358 348 341 331 323 323 324 319 313 313 313 307 304 307 312 321 326 325 326 328 325 324 326 323 317 318 328 326 330 92 96 96 104 114 123 132 138 145 152 139 91 97 117 119 117 118 123 123 120 128 136 132 116 115 128 137 138 134 133 140 143 143 141 140 140 142 145 149 148 143 142 149 155 153 152 153 155 158 160 158 154 154 170
51 41 10 351 345 337 328 322 320 318 314 311 309 310 311 311 318 323 322 324 324 317 313 314 313 309 308 307 303 299 302 311 344 103 115 124 132 135 132 126 124 122 115 102 84 70 81 97 104 108 116 128 136 137 131 108 79 84 106 121 128 129 127 135 144 143 139 139 144 146 149 153 156 156 158 157 151 149 150 153 157 159 158 156 148 126 109
41 29 359 333 319 312 310 310 311 310 311 313 314 313 313 315 314 311 309 309 308 305 303 301 298 295 296 298 293 283 274 233 129 132 133 123 119 125 130 127 124 120 117 121 134 144 138 130 128 122 113 106 104 110 112 94 71 71 98 117 122 124 125 129 137 141 141 141 141 144 150 155 154 156 160 156 149 149 150 157 168 171 170 165 156 139 143
13 357 331 311 300 297 295 291 289 291 301 307 305 303 310 316 314 311 307 300 294 291 291 291 289 287 287 287 283 271 231 147 135 139 140 132 128 135 137 130 128 128 125 128 140 149 153 163 172 154 121 105 100 100 103 98 90 91 106 120 123 125 127 125 127 134 140 143 144 145 148 148 145 150 156 150 142 142 136 133 157 173 179 176 164 150 158
350 334 319 308 301 296 296 302 305 305 305 306 311 319 328 330 328 326 323 314 306 299 293 289 285 279 276 275 272 136 130 134 138 146 151 147 146 147 142 136 137 138 136 139 151 157 158 156 145 131 125 132 135 103 18 119 119 115 123 136 140 149 158 157 153 150 148 150 153 155 156 156 155 157 165 155 130 134 142 139 154 177 188 190 182 166 156
337 329 325 322 318 319 324 327 330 333 334 333 333 334 334 332 330 327 324 324 331 339 335 326 316 300 287 276 141 113 122 134 141 147 151 150 146 142 138 142 148 146 139 139 146 148 143 133 133 135 130 122 85 327 300 167 143 135 140 150 155 170 172 164 160 161 163 168 175 176 174 174 172 170 179 191 202 217 212 190 164 170 185 193 194 181 160
332 329 328 325 327 331 327 322 330 345 346 336 327 328 330 330 327 323 322 329 345 355 352 344 337 325 309 265 126 122 127 131 133 136 139 139 134 126 120 124 134 137 136 140 145 144 133 126 138 143 133 118 94 3 3 147 143 136 151 166 174 182 171 161 163 170 174 179 187 191 189 188 189 189 192 197 214 233 227 210 190 180 199 210 200 182 168
334 334 337 336 333 328 320 320 337 345 336 330 332 336 336 333 329 326 329 336 343 349 354 351 347 346 354 51 112 124 126 126 127 128 127 123 116 106 97 103 121 131 137 145 149 146 139 141 148 149 145 147 142 85 74 126 146 150 184 192 193 191 179 173 178 187 187 186 192 201 209 210 208 212 218 218 220 230 229 218 207 204 217 227 203 178 170
339 342 343 338 330 324 325 340 354 339 331 340 353 346 338 339 340 337 335 331 330 344 7 20 21 14 7 6 17 41 65 83 95 100 102 106 108 104 106 135 152 153 153 153 150 147 148 156 159 157 158 166 164 140 121 142 166 313 303 249 230 226 214 203 201 207 210 208 210 218 230 231 223 221 228 227 225 227 222 207 191 186 196 221 227 208 193
343 340 335 329 328 331 338 351 352 333 331 352 3 352 348 356 356 350 348 347 345 354 10 28 44 50 40 32 39 47 51 58 69 74 86 126 144 145 151 159 158 152 150 152 153 154 156 157 158 160 162 160 153 148 152 168 218 318 325 320 307 282 243 220 215 219 224 228 230 233 239 242 236 230 227 225 229 233 224 201 181 184 210 232 235 220 200
335 329 326 330 339 341 343 348 349 341 343 354 357 355 0 3 358 357 5 9 12 16 19 25 37 47 50 53 73 81 82 88 96 92 106 135 149 160 162 158 155 154 156 157 158 159 162 164 167 171 169 158 148 146 158 197 241 276 308 329 341 352 0 341 305 273 237 225 227 232 242 252 250 239 230 226 228 228 215 192 178 190 204 209 210 192 179
341 339 339 345 345 340 337 340 342 340 339 339 341 347 356 1 6 13 11 3 9 26 33 36 45 50 45 50 161 143 134 140 155 158 132 108 110 157 169 166 163 161 163 169 171 167 166 168 172 174 174 170 168 171 176 190 246 290 330 354 3 8 6 355 347 347 347 314 251 261 266 260 247 229 234 239 220 198 188 180 180 187 188 193 210 185 168
355 352 351 352 349 341 335 336 335 330 327 330 336 346 355 356 3 9 356 338 340 351 346 329 330 341 294 244 201 170 159 162 173 175 163 136 129 156 164 167 166 163 164 174 177 168 164 168 173 177 180 186 197 208 195 158 144 303 320 326 330 336 340 343 348 352 347 337 333 333 317 290 312 357 335 332 346 332 222 190 183 179 178 185 190 174 161
354 350 351 355 353 345 343 343 338 332 333 340 352 4 4 354 348 353 351 336 326 329 328 320 318 318 311 310 316 313 151 151 159 163 157 153 164 165 161 160 165 173 182 187 175 164 164 174 181 184 190 201 208 195 173 167 184 242 275 283 283 296 309 310 317 333 339 339 337 331 314 286 293 352 346 335 339 337 275 162 147 133 144 158 160 156 158
342 336 337 339 337 339 347 348 342 341 351 360 354 347 346 341 336 342 348 343 336 337 336 327 320 317 314 313 315 313 145 129 120 127 130 138 157 164 163 162 168 184 196 196 187 179 183 193 194 192 192 194 189 177 171 181 220 257 264 250 244 264 289 295 298 318 326 334 340 337 321 282 223 156 11 337 339 343 33 145 135 118 123 135 140 146 152
321 311 312 316 319 328 342 342 335 334 347 349 335 327 329 329 329 332 339 341 341 339 334 325 318 313 307 304 300 288 260 265 276 209 190 181 177 178 180 184 185 185 186 187 191 198 201 196 188 180 175 176 180 183 186 196 226 272 269 242 228 229 237 218 207 317 313 312 325 332 324 301 250 220 250 277 304 319 317 154 150 149 146 138 142 153 157
296 294 299 304 308 320 331 329 320 314 317 318 315 315 317 318 317 315 316 323 329 327 321 315 310 305 301 300 294 275 259 258 259 247 231 218 206 202 200 195 189 185 183 181 184 191 194 190 182 176 174 176 182 192 202 209 229 272 284 267 245 234 252 266 269 283 293 294 301 315 323 327 326 209 208 240 285 299 281 196 161 162 170 186 203 193 188
282 280 276 272 274 290 294 282 272 276 285 287 287 291 298 303 304 304 307 312 316 316 312 311 309 304 296 286 274 262 257 259 265 263 249 222 204 206 210 202 192 187 188 188 187 187 188 188 187 187 188 189 192 199 209 222 241 268 292 300 294 286 303 314 298 274 277 291 298 303 317 336 350 242 205 227 276 286 272 257 252 242 237 242 234 211 200
263 262 259 254 247 247 257 263 264 266 270 273 280 289 290 286 288 297 303 306 308 309 309 308 306 305 302 292 276 268 265 259 257 261 256 234 209 203 206 203 194 189 188 190 192 193 192 192 193 197 203 209 214 218 225 238 253 267 288 311 317 307 309 316 299 247 234 275 297 288 297 328 343 331 278 262 270 269 263 255 240 227 222 222 216 202 197
246 245 253 257 244 228 237 252 261 265 269 271 271 272 273 273 280 294 301 302 295 291 296 297 295 295 294 285 274 275 276 257 241 246 251 241 227 221 216 209 204 201 198 195 196 202 205 203 203 210 218 221 223 228 235 243 252 261 273 291 305 307 314 318 302 254 220 195 210 248 279 309 319 318 320 313 282 253 237 222 203 197 204 210 213 220 227